Wind_Speed
41 41 47 47 44 39 34 29 27 25 22 20 15 13 9 5 3 3 9 10 13 17 16 17 21 32 27 37 38 39 41 39 38 35 34 33 30 26 24 21 19 20 21 20 19
41 42 44 48 47 43 38 33 32 29 25 22 17 14 13 10 4 3 4 10 10 13 12 16 13 25 26 28 34 34 33 36 37 34 30 29 28 26 26 24 23 27 29 28 27
42 43 44 48 49 46 42 37 35 33 29 24 20 16 15 13 8 6 9 9 10 11 13 16 14 20 20 23 27 30 30 31 34 33 30 28 28 28 28 29 31 30 32 31 29
44 43 44 47 50 48 45 40 38 36 33 29 25 20 16 15 12 11 8 15 9 11 8 12 14 8 12 13 18 19 23 23 24 27 27 27 27 25 28 30 25 25 26 27 28
44 43 45 45 47 49 48 43 41 39 38 34 31 25 21 17 15 21 21 15 14 9 10 13 11 11 10 9 15 13 15 15 16 18 21 23 22 21 19 21 15 15 13 14 17
43 43 44 45 44 48 50 47 44 42 40 38 36 31 28 23 20 22 26 21 9 14 14 12 13 13 14 14 12 9 8 12 11 10 11 14 14 14 13 13 9 11 8 12 14
42 44 43 46 44 45 48 49 48 45 42 41 40 36 33 29 26 23 27 26 24 23 20 16 9 16 17 16 12 9 8 4 8 9 6 7 11 10 9 8 6 6 4 9 11
41 42 42 44 44 44 45 47 50 49 44 43 43 42 38 34 31 28 27 29 29 28 24 20 12 16 16 19 18 14 11 11 6 5 8 6 5 6 4 3 2 1 3 5 8
39 40 41 44 45 45 44 45 49 51 48 46 44 44 42 39 36 33 31 31 32 31 32 30 24 17 19 21 22 15 14 12 10 9 8 10 8 9 9 9 9 9 7 6 6
34 36 40 43 45 46 45 44 46 49 51 48 47 46 44 42 41 39 35 34 34 34 32 33 31 26 26 20 23 21 19 16 17 16 15 13 14 14 13 14 15 14 14 13 10
30 35 39 42 46 47 47 46 45 46 48 51 50 49 47 45 44 44 42 38 37 37 36 35 35 34 31 31 34 31 29 25 22 18 18 18 19 20 20 20 21 21 17 17 14
24 28 33 39 44 47 49 49 48 46 48 49 49 49 51 49 47 45 44 44 42 42 41 41 39 39 39 37 37 36 35 33 30 27 24 24 24 22 23 24 24 23 22 21 21
17 20 27 32 38 44 50 51 50 50 49 49 51 52 50 53 52 51 49 45 46 46 46 46 45 43 42 42 40 39 36 35 36 35 34 33 33 33 31 28 28 27 24 23 25
11 14 17 22 28 35 42 48 52 53 53 53 51 50 53 55 54 54 54 52 50 48 49 46 47 48 47 45 45 44 42 41 41 40 39 39 37 38 37 37 37 35 35 30 25
3 8 13 17 18 20 27 34 41 48 54 54 55 55 53 54 57 57 57 56 56 55 55 52 51 51 52 51 51 48 48 48 47 46 45 45 45 46 45 43 42 41 40 40 39
3 4 7 11 14 18 22 25 29 34 42 47 52 55 58 58 55 56 61 63 60 59 60 58 58 56 58 57 55 54 53 52 52 52 52 51 52 51 51 51 50 48 46 44 46
6 5 8 12 13 15 17 21 26 33 37 38 45 51 55 58 59 60 60 61 63 66 67 66 64 62 62 63 61 60 60 59 58 58 60 56 57 54 56 57 56 56 56 52 50
7 9 11 14 17 19 21 24 27 30 32 38 44 48 51 54 58 61 63 63 64 65 69 71 71 70 67 67 68 69 68 67 65 64 63 61 60 55 61 60 60 60 61 61 58
14 14 15 17 18 20 24 28 33 38 39 42 43 44 49 53 57 60 62 65 66 66 69 71 75 72 74 74 73 74 75 73 72 71 69 69 65 66 68 68 67 66 65 67 65
23 23 25 27 28 30 33 32 31 36 43 46 50 52 53 54 56 59 62 66 66 69 70 70 75 72 73 74 76 78 78 78 78 76 73 74 70 73 71 73 73 72 71 71 70
32 32 34 36 38 40 43 42 42 46 47 48 51 56 56 62 63 64 65 63 67 69 72 72 75 72 73 73 74 73 78 80 82 80 80 78 76 74 74 75 75 76 75 75 72
34 37 38 41 44 46 49 48 51 54 57 54 54 57 62 61 63 70 73 73 71 71 72 73 75 77 76 72 76 76 76 74 76 76 78 79 82 77 82 80 81 79 78 74 70
41 42 44 47 50 51 55 54 56 57 55 55 57 60 61 66 67 69 75 76 78 77 75 75 76 75 73 75 77 78 77 77 76 75 74 74 76 71 74 74 75 73 69 62 59
47 48 49 51 55 57 57 58 56 55 58 60 60 64 65 67 69 69 75 79 81 81 80 78 78 78 79 79 76 74 76 77 76 76 77 74 73 72 72 71 72 72 71 69 64
49 50 53 54 55 60 59 58 57 60 61 63 68 69 70 71 72 73 77 81 82 83 83 82 82 82 83 80 78 75 73 71 71 75 74 77 73 74 73 72 71 72 72 71 71
50 53 54 53 58 57 56 58 61 60 66 67 65 63 65 67 73 78 83 87 88 89 88 86 86 85 85 82 79 76 74 71 69 68 68 70 72 72 72 73 73 72 72 72 73
46 48 50 55 53 50 51 59 63 63 58 53 51 49 52 55 58 64 71 77 82 86 87 89 91 90 88 86 82 78 74 71 69 69 68 66 62 64 63 62 63 66 68 70 71
Wind_Direction
210 211 207 206 207 207 207 207 210 216 219 224 222 212 210 213 231 115 103 97 95 81 81 81 86 83 78 86 79 88 91 88 87 86 86 90 89 86 84 78 73 71 63 55 52
211 210 209 207 208 208 206 205 210 215 220 223 217 211 207 213 179 155 117 103 102 99 87 100 102 81 83 95 91 84 77 88 90 89 87 87 87 88 86 82 80 79 76 70 65
211 210 212 208 208 209 207 206 211 215 220 225 221 221 210 214 192 159 152 138 122 126 109 110 100 91 81 99 91 95 86 83 85 88 91 92 97 96 93 90 88 85 84 74 70
211 210 213 212 209 210 210 209 209 215 221 224 226 227 223 216 198 146 122 175 161 145 129 121 122 101 80 89 93 102 100 93 88 91 92 92 91 86 101 100 97 85 81 71 54
210 211 212 216 212 212 213 211 212 213 219 224 226 228 226 221 203 165 161 185 176 150 154 164 164 149 124 115 108 94 109 104 99 98 103 110 107 97 95 95 83 80 63 50 37
209 210 211 216 216 215 214 213 216 216 218 220 225 226 230 223 214 186 180 175 167 177 179 184 176 160 168 154 140 122 103 120 116 117 114 121 117 110 114 117 83 63 42 14 16
212 211 211 215 218 219 219 216 218 219 220 222 224 229 233 232 225 213 195 205 181 163 188 196 197 181 181 169 170 182 162 166 135 145 168 155 123 115 111 107 107 107 353 355 11
216 215 213 215 217 220 223 221 220 222 223 224 226 227 233 233 230 223 208 208 215 213 199 176 196 216 212 206 190 198 208 180 205 172 172 188 215 223 193 179 124 22 354 358 12
219 219 217 215 216 221 224 225 223 223 226 227 229 230 230 234 230 228 224 213 214 219 218 223 222 200 224 228 235 219 221 240 232 241 239 232 229 234 247 248 256 265 284 307 322
219 221 223 218 221 221 225 227 227 227 226 229 232 232 234 237 238 231 229 223 220 220 225 226 234 224 210 195 209 216 200 208 221 236 237 241 252 255 250 248 252 266 279 280 290
221 223 226 226 224 225 226 228 230 230 230 228 233 235 234 237 240 242 236 227 225 224 226 229 234 239 238 231 238 224 207 210 217 225 235 238 246 253 258 262 257 259 263 270 266
220 226 229 230 231 231 231 231 231 232 233 232 230 236 239 239 241 244 245 246 232 229 227 228 231 237 239 239 238 237 245 254 252 247 240 231 229 238 248 255 257 258 263 264 266
218 226 232 231 231 232 235 237 236 236 236 236 235 234 237 241 241 244 245 245 248 248 236 232 233 233 237 241 243 241 244 245 248 250 250 248 243 242 241 245 248 247 250 255 267
222 224 232 235 236 238 238 238 240 241 240 241 240 240 238 238 241 244 244 245 245 245 250 248 243 241 242 241 241 243 247 251 253 255 255 257 257 255 252 251 253 255 250 252 254
264 259 255 255 249 245 244 244 244 245 245 245 245 243 243 241 240 242 245 246 246 246 246 247 247 249 248 246 247 247 247 249 253 255 258 259 260 261 261 260 258 258 260 259 258
338 289 274 272 271 261 254 252 248 248 247 245 247 246 246 244 243 241 243 243 244 246 249 248 246 246 251 251 252 252 251 252 254 256 260 262 264 263 265 264 263 262 258 259 263
325 313 298 291 281 272 266 264 261 254 252 251 248 248 246 245 244 244 244 243 244 244 244 246 247 247 247 251 251 251 252 253 254 255 256 258 261 265 268 270 270 270 267 264 262
335 318 305 288 281 280 279 276 270 265 262 258 253 249 248 248 247 246 244 244 244 244 244 245 243 244 244 245 249 253 253 252 252 253 256 257 260 261 261 265 267 269 271 269 267
314 319 317 304 301 296 282 276 273 268 263 260 257 256 255 251 249 248 248 247 246 244 245 246 247 245 245 245 246 249 251 252 253 253 254 255 255 255 259 260 261 263 265 269 270
300 304 306 307 303 300 301 294 287 277 267 263 259 257 255 254 253 250 249 249 247 246 246 245 248 246 247 246 245 247 250 251 252 253 254 255 256 258 259 261 261 263 263 264 267
297 300 301 301 301 301 303 301 294 290 281 266 258 252 252 253 251 253 250 249 249 249 248 247 248 246 246 247 248 249 249 250 251 252 253 255 255 259 260 263 264 266 266 268 268
292 294 297 300 302 301 300 296 291 287 286 277 267 258 253 249 248 249 250 249 249 249 247 247 249 249 249 249 248 247 249 251 253 252 253 254 255 255 259 260 263 265 267 269 271
292 290 292 295 300 299 300 295 293 285 282 278 275 269 262 253 248 245 246 247 246 247 248 249 249 249 248 249 249 249 249 248 249 253 254 256 257 258 258 259 261 262 263 265 266
291 289 291 294 298 299 299 297 291 287 285 282 276 269 263 258 250 245 243 243 244 244 245 246 247 249 249 248 250 252 252 251 252 253 254 255 257 257 259 260 262 264 263 263 264
292 291 291 295 296 300 299 295 292 292 291 287 279 270 262 257 251 246 244 243 242 242 243 245 246 247 249 249 250 251 253 255 255 256 256 257 258 259 259 260 260 262 263 264 263
289 289 292 295 299 300 298 296 297 299 297 289 280 270 261 253 247 243 241 240 240 241 241 242 243 245 246 248 250 252 253 255 257 258 259 260 260 260 261 262 263 263 263 263 263
292 293 294 298 300 301 299 301 303 308 306 292 279 269 259 251 244 240 238 238 239 240 239 239 241 243 245 247 249 251 253 255 256 259 260 261 263 262 263 263 263 262 262 262 263
Height
10951 10957 10964 10970 10975 10981 10987 10992 10996 10999 11001 11004 11007 11011 11014 11015 11016 11018 11018 11019 11021 11021 11021 11021 11022 11020 11022 11020 11017 11015 11014 11011 11011 11012 11013 11013 11013 11014 11014 11014 11014 11015 11015 11015 11014
10947 10953 10959 10965 10971 10977 10983 10989 10993 10996 10999 11002 11005 11009 11012 11014 11017 11018 11019 11019 11021 11022 11023 11023 11025 11024 11026 11025 11022 11020 11020 11018 11016 11017 11018 11019 11018 11018 11018 11018 11019 11019 11019 11019 11018
10942 10948 10955 10960 10966 10974 10979 10985 10990 10993 10996 11000 11003 11007 11011 11013 11017 11019 11020 11020 11021 11022 11024 11025 11026 11025 11027 11029 11028 11025 11024 11024 11023 11023 11023 11024 11024 11023 11023 11023 11023 11024 11023 11023 11022
10937 10943 10950 10955 10962 10969 10975 10980 10986 10990 10993 10997 11001 11005 11008 11012 11016 11019 11020 11021 11022 11023 11024 11027 11027 11029 11029 11030 11030 11030 11029 11029 11029 11028 11028 11029 11030 11028 11028 11027 11027 11028 11027 11025 11024
10932 10938 10945 10950 10957 10964 10970 10976 10981 10986 10990 10994 10998 11002 11005 11010 11014 11018 11019 11020 11022 11023 11024 11026 11027 11028 11030 11031 11032 11032 11033 11032 11032 11033 11032 11033 11033 11032 11033 11032 11031 11030 11030 11028 11027
10926 10933 10940 10946 10952 10958 10964 10972 10976 10981 10986 10990 10994 10998 11001 11006 11012 11015 11017 11019 11021 11023 11023 11026 11027 11028 11030 11031 11032 11033 11034 11035 11034 11035 11035 11035 11034 11034 11035 11035 11034 11032 11032 11029 11027
10922 10929 10935 10941 10947 10953 10958 10966 10971 10976 10981 10985 10989 10994 10997 11002 11007 11012 11015 11016 11019 11020 11022 11025 11026 11027 11029 11030 11031 11032 11033 11035 11035 11035 11036 11036 11036 11036 11036 11035 11035 11034 11033 11030 11028
10918 10924 10930 10936 10942 10948 10953 10960 10966 10971 10976 10980 10984 10989 10991 10996 11001 11006 11010 11013 11014 11017 11020 11022 11025 11027 11028 11030 11030 11031 11032 11034 11035 11035 11034 11034 11035 11035 11035 11035 11034 11034 11034 11032 11030
10914 10920 10926 10931 10936 10942 10947 10953 10960 10965 10971 10974 10979 10983 10987 10990 10996 11000 11004 11008 11010 11011 11014 11017 11020 11023 11024 11025 11027 11029 11031 11031 11032 11032 11032 11033 11033 11033 11033 11033 11033 11033 11032 11032 11031
10910 10915 10920 10926 10931 10936 10941 10946 10952 10959 10964 10969 10972 10977 10982 10985 10989 10994 10997 11002 11005 11007 11009 11012 11014 11018 11020 11022 11023 11025 11026 11027 11029 11029 11029 11030 11030 11029 11030 11031 11031 11031 11030 11030 11030
10906 10911 10914 10919 10925 10929 10935 10940 10945 10951 10957 10962 10967 10970 10974 10979 10982 10986 10991 10994 10999 11001 11003 11005 11008 11010 11013 11016 11017 11018 11021 11023 11024 11026 11026 11026 11026 11026 11026 11027 11027 11027 11027 11028 11028
10903 10906 10909 10913 10918 10922 10927 10932 10937 10942 10947 10953 10959 10962 10966 10971 10975 10978 10983 10986 10991 10994 10997 11000 11001 11003 11005 11009 11011 11013 11013 11014 11016 11019 11020 11022 11022 11021 11022 11022 11023 11023 11023 11023 11024
10900 10902 10903 10907 10911 10915 10919 10924 10928 10933 10937 10943 10948 10953 10957 10960 10965 10968 10974 10977 10980 10982 10988 10993 10995 10997 10998 11000 11002 11005 11006 11008 11010 11011 11013 11015 11016 11016 11016 11017 11017 11017 11018 11019 11020
10899 10900 10901 10903 10906 10909 10912 10916 10920 10924 10927 10932 10937 10943 10947 10950 10955 10958 10962 10966 10969 10973 10975 10981 10984 10987 10990 10992 10994 10996 10998 11000 11001 11003 11005 11005 11006 11007 11009 11011 11011 11010 11012 11013 11014
10898 10898 10899 10901 10903 10905 10906 10909 10911 10913 10917 10923 10927 10928 10934 10938 10944 10946 10949 10954 10958 10963 10965 10970 10972 10974 10977 10982 10984 10987 10990 10992 10993 10994 10995 10996 10996 10996 10999 11001 11003 11004 11005 11005 11007
10896 10897 10897 10898 10899 10900 10902 10902 10903 10905 10906 10910 10912 10915 10919 10923 10928 10933 10936 10939 10945 10949 10951 10956 10959 10963 10964 10968 10972 10976 10979 10980 10982 10984 10985 10986 10985 10987 10987 10989 10991 10993 10996 10998 10999
10895 10896 10895 10894 10895 10895 10896 10896 10897 10897 10898 10901 10901 10902 10904 10908 10912 10916 10921 10925 10929 10932 10934 10939 10944 10950 10953 10954 10958 10962 10963 10967 10969 10972 10971 10977 10976 10980 10975 10975 10977 10978 10980 10986 10988
10893 10893 10892 10891 10890 10890 10889 10889 10890 10890 10890 10889 10889 10889 10891 10894 10897 10899 10902 10906 10912 10915 10916 10920 10926 10931 10939 10942 10943 10944 10947 10951 10954 10957 10959 10963 10966 10970 10962 10963 10965 10966 10965 10967 10973
10888 10888 10887 10886 10885 10884 10883 10881 10880 10879 10879 10878 10878 10879 10878 10880 10881 10882 10885 10889 10893 10898 10899 10902 10901 10914 10917 10924 10928 10929 10929 10935 10939 10941 10943 10945 10952 10952 10948 10949 10950 10954 10955 10953 10956
10881 10880 10878 10877 10876 10874 10872 10871 10870 10868 10866 10865 10864 10864 10863 10863 10865 10866 10868 10870 10875 10877 10880 10884 10881 10894 10898 10903 10908 10910 10913 10915 10919 10924 10928 10928 10934 10931 10931 10930 10934 10937 10939 10940 10940
10871 10869 10867 10865 10863 10861 10858 10855 10852 10849 10848 10848 10846 10846 10846 10846 10847 10848 10848 10853 10854 10858 10862 10865 10863 10875 10878 10884 10887 10892 10893 10897 10900 10907 10909 10913 10915 10917 10917 10915 10918 10917 10921 10924 10926
10860 10858 10855 10852 10850 10847 10842 10839 10835 10831 10827 10825 10823 10823 10823 10826 10826 10827 10827 10829 10834 10837 10842 10845 10848 10852 10857 10867 10865 10870 10873 10881 10882 10885 10889 10894 10894 10902 10897 10902 10901 10903 10905 10908 10910
10848 10845 10842 10838 10835 10830 10826 10821 10816 10811 10806 10804 10801 10798 10798 10800 10802 10802 10802 10809 10811 10814 10820 10826 10829 10833 10838 10841 10845 10849 10854 10858 10863 10867 10871 10875 10875 10884 10881 10884 10884 10888 10889 10890 10895
10835 10832 10828 10824 10819 10813 10807 10801 10794 10789 10785 10781 10776 10771 10771 10771 10773 10779 10779 10783 10786 10792 10798 10803 10808 10813 10814 10817 10826 10832 10836 10841 10846 10849 10851 10858 10861 10864 10866 10868 10868 10869 10872 10875 10879
10819 10816 10812 10808 10802 10795 10787 10779 10773 10768 10760 10753 10744 10738 10737 10741 10744 10751 10755 10757 10761 10769 10776 10782 10787 10792 10793 10802 10807 10814 10820 10825 10830 10833 10836 10835 10844 10845 10848 10850 10851 10852 10854 10856 10859
10804 10800 10796 10792 10785 10778 10769 10760 10753 10745 10732 10718 10707 10705 10703 10706 10710 10716 10721 10727 10734 10742 10752 10759 10766 10770 10775 10782 10789 10796 10804 10809 10814 10816 10817 10821 10825 10828 10830 10831 10833 10835 10836 10836 10836
10790 10787 10781 10776 10769 10762 10753 10742 10730 10721 10704 10687 10678 10675 10674 10676 10682 10689 10695 10704 10714 10721 10729 10737 10744 10749 10757 10766 10775 10781 10789 10794 10798 10799 10802 10803 10811 10809 10812 10813 10813 10815 10815 10814 10814